This is the latest recevied weather packets stored in our database for station/object JO1YDG-13. If no packets are shown the sender has not sent any weather packets the latest 10 day(s).
| Time | Temp. | Humidity | Pressure | Rain* | Wind** | Luminosity | Snow |
|---|---|---|---|---|---|---|---|
| 1777619769 | 21.67° C | 69% | 964.6 hPa | 0 mm | - | - | - |
| 1777619469 | 21.67° C | 70% | 965 hPa | 0 mm | - | - | - |
| 1777619168 | 21.11° C | 70% | 965 hPa | 0 mm | - | - | - |
| 1777618868 | 21.11° C | 72% | 965.6 hPa | 0 mm | - | - | - |
| 1777618568 | 21.11° C | 71% | 965.6 hPa | 0 mm | - | - | - |
| 1777618268 | 21.11° C | 72% | 965.7 hPa | 0 mm | - | - | - |
| 1777617968 | 20.56° C | 73% | 966.1 hPa | 0 mm | - | - | - |
| 1777617668 | 20° C | 75% | 966.1 hPa | 0 mm | - | - | - |
| 1777617368 | 20.56° C | 75% | 966.4 hPa | 0 mm | - | - | - |
| 1777617068 | 20.56° C | 74% | 966.4 hPa | 0 mm | - | - | - |
| 1777616768 | 20° C | 75% | 966.7 hPa | 0 mm | - | - | - |
| 1777616467 | 20° C | 76% | 966.7 hPa | 0 mm | - | - | - |
| 1777616169 | 20° C | 75% | 966.7 hPa | 0 mm | - | - | - |
| 1777615869 | 19.44° C | 78% | 967 hPa | 0 mm | - | - | - |
| 1777615568 | 18.89° C | 78% | 967 hPa | 0 mm | - | - | - |
| 1777615267 | 19.44° C | 78% | 967.5 hPa | 0 mm | - | - | - |
| 1777614967 | 18.89° C | 77% | 967.5 hPa | 0 mm | - | - | - |
| 1777614668 | 18.89° C | 79% | 967.5 hPa | 0 mm | - | - | - |
| 1777614367 | 18.33° C | 79% | 967.7 hPa | 0 mm | - | - | - |
| 1777614067 | 18.33° C | 79% | 967.7 hPa | 0 mm | - | - | - |
| 1777613768 | 18.33° C | 79% | 968.2 hPa | 0 mm | - | - | - |
| 1777613468 | 18.33° C | 79% | 968.2 hPa | 0 mm | - | - | - |
| 1777613168 | 18.33° C | 79% | 968.4 hPa | 0 mm | - | - | - |
| 1777612867 | 18.89° C | 78% | 968.4 hPa | 0 mm | - | - | - |
| 1777612567 | 18.89° C | 79% | 968.4 hPa | 0 mm | - | - | - |
* Rain latest hour (hover to see other rain measurements)
** Current wind speed in m/s (hover to see current wind gust speed)